| time (UTC) | temp F | wind direction | speed knots | gust knots | rain 1hr in | rain 24hr in | rain mn in | humidity % | barometer mb |
| 20260506231117 | 58 | 0.0 | 0.0 | 0.02 | 0.26 | 0.25 | 95 | 1003.2 | |
| 20260506230118 | 58 | 0.0 | 0.9 | 0.03 | 0.26 | 0.25 | 95 | 1003.2 | |
| 20260506225117 | 58 | 0.0 | 0.0 | 0.03 | 0.26 | 0.25 | 95 | 1003.5 | |
| 20260506224118 | 58 | 0.0 | 0.9 | 0.02 | 0.25 | 0.24 | 95 | 1003.4 | |
| 20260506223116 | 58 | 293 | 0.9 | 0.9 | 0.01 | 0.24 | 0.23 | 95 | 1003.4 |
| 20260506222138 | 58 | 0.0 | 0.9 | 0.01 | 0.24 | 0.23 | 94 | 1003.2 | |
| 20260506221156 | 58 | 0.0 | 0.9 | 0.01 | 0.24 | 0.23 | 94 | 1003.3 | |
| 20260506220158 | 58 | 0.0 | 1.7 | 0.00 | 0.23 | 0.22 | 94 | 1003.2 | |
| 20260506215116 | 59 | 180 | 0.9 | 1.7 | 0.00 | 0.23 | 0.22 | 94 | 1003.2 |
| 20260506214138 | 59 | 248 | 2.6 | 3.5 | 0.01 | 0.24 | 0.22 | 95 | 1003.2 |
| 20260506213117 | 58 | 315 | 0.9 | 1.7 | 0.01 | 0.24 | 0.22 | 95 | 1003.2 |
| 20260506212136 | 58 | 0.0 | 1.7 | 0.01 | 0.24 | 0.22 | 95 | 1003.3 | |
| 20260506211117 | 58 | 0.0 | 0.0 | 0.02 | 0.24 | 0.22 | 95 | 1003.4 | |
| 20260506210117 | 58 | 315 | 0.9 | 2.6 | 0.02 | 0.24 | 0.22 | 95 | 1003.5 |
| 20260506205117 | 58 | 0.0 | 0.9 | 0.02 | 0.24 | 0.22 | 96 | 1003.6 | |
| 20260506204118 | 58 | 0 | 0.9 | 2.6 | 0.01 | 0.23 | 0.21 | 96 | 1003.5 |
| 20260506203118 | 58 | 225 | 0.9 | 1.7 | 0.01 | 0.23 | 0.21 | 96 | 1003.6 |
| 20260506202117 | 57 | 0.0 | 0.9 | 0.01 | 0.23 | 0.21 | 96 | 1003.5 | |
| 20260506201118 | 57 | 0.0 | 0.0 | 0.00 | 0.22 | 0.20 | 96 | 1003.6 | |
| 20260506200118 | 56 | 0.0 | 0.0 | 0.03 | 0.22 | 0.20 | 95 | 1003.7 | |
| 20260506195117 | 56 | 0.0 | 0.0 | 0.05 | 0.22 | 0.20 | 94 | 1003.7 | |
| 20260506194117 | 56 | 0.0 | 0.0 | 0.06 | 0.22 | 0.20 | 94 | 1003.9 | |
| 20260506193117 | 57 | 0.0 | 0.9 | 0.07 | 0.22 | 0.20 | 93 | 1004.1 | |
| 20260506192117 | 58 | 0.0 | 0.0 | 0.07 | 0.22 | 0.20 | 95 | 1004.2 | |
| 20260506191117 | 58 | 90 | 0.9 | 1.7 | 0.08 | 0.22 | 0.20 | 95 | 1004.3 |
| 20260506190118 | 57 | 0.0 | 0.0 | 0.05 | 0.19 | 0.17 | 94 | 1004.4 | |
| 20260506185117 | 58 | 0.0 | 0.0 | 0.04 | 0.17 | 0.15 | 94 | 1004.6 | |
| 20260506184117 | 58 | 0.0 | 0.0 | 0.05 | 0.16 | 0.14 | 94 | 1004.7 | |
| 20260506183117 | 58 | 0.0 | 0.0 | 0.06 | 0.15 | 0.13 | 94 | 1004.8 | |
| 20260506182116 | 58 | 0.0 | 0.0 | 0.07 | 0.15 | 0.13 | 94 | 1004.8 | |
| 20260506181117 | 58 | 0.0 | 0.0 | 0.08 | 0.14 | 0.12 | 94 | 1005.2 | |
| 20260506180117 | 59 | 0.0 | 0.0 | 0.09 | 0.14 | 0.12 | 94 | 1005.5 | |
| 20260506175117 | 59 | 0.0 | 0.0 | 0.09 | 0.13 | 0.11 | 94 | 1005.7 | |
| 20260506174117 | 59 | 23 | 0.9 | 2.6 | 0.08 | 0.11 | 0.09 | 93 | 1005.8 |
| 20260506173117 | 59 | 0.0 | 0.9 | 0.07 | 0.09 | 0.07 | 93 | 1005.8 | |
| 20260506172117 | 59 | 0.0 | 0.9 | 0.06 | 0.08 | 0.06 | 93 | 1005.8 | |
| 20260506171116 | 59 | 0.0 | 0.9 | 0.04 | 0.06 | 0.04 | 92 | 1005.8 | |
| 20260506170118 | 60 | 0.0 | 0.9 | 0.03 | 0.05 | 0.03 | 92 | 1005.9 | |
| 20260506165138 | 60 | 0.0 | 0.9 | 0.02 | 0.04 | 0.02 | 90 | 1005.9 | |
| 20260506164117 | 60 | 293 | 0.9 | 1.7 | 0.01 | 0.03 | 0.01 | 90 | 1006.0 |
| 20260506163117 | 60 | 0.0 | 0.9 | 0.00 | 0.02 | 0.00 | 87 | 1006.0 | |
| 20260506162117 | 60 | 0.0 | 0.9 | 0.00 | 0.02 | 0.00 | 86 | 1006.0 | |
| 20260506161117 | 61 | 0.0 | 0.0 | 0.00 | 0.02 | 0.00 | 85 | 1006.2 | |
| 20260506160117 | 61 | 0.0 | 0.9 | 0.00 | 0.02 | 0.00 | 84 | 1006.3 | |
| 20260506155117 | 61 | 338 | 0.9 | 1.7 | 0.00 | 0.02 | 0.00 | 84 | 1006.5 |
| 20260506154117 | 61 | 90 | 0.9 | 1.7 | 0.00 | 0.02 | 0.00 | 84 | 1006.8 |
| 20260506153117 | 61 | 0.0 | 0.0 | 0.00 | 0.02 | 0.00 | 83 | 1007.0 | |
| 20260506152117 | 61 | 45 | 0.9 | 1.7 | 0.00 | 0.02 | 0.00 | 82 | 1007.2 |
| 20260506151118 | 61 | 248 | 0.9 | 1.7 | 0.00 | 0.02 | 0.00 | 83 | 1007.2 |
| 20260506150117 | 61 | 158 | 1.7 | 3.5 | 0.00 | 0.02 | 0.00 | 82 | 1007.2 |
| 20260506145118 | 60 | 0.0 | 0.9 | 0.00 | 0.02 | 0.00 | 83 | 1006.9 | |
| 20260506144117 | 60 | 113 | 0.9 | 1.7 | 0.00 | 0.02 | 0.00 | 83 | 1006.7 |
| 20260506143117 | 60 | 45 | 2.6 | 3.5 | 0.00 | 0.02 | 0.00 | 83 | 1006.7 |
| 20260506142117 | 60 | 0 | 0.9 | 1.7 | 0.00 | 0.02 | 0.00 | 83 | 1006.9 |
| 20260506141117 | 60 | 45 | 1.7 | 2.6 | 0.00 | 0.02 | 0.00 | 83 | 1006.9 |
| 20260506140117 | 60 | 90 | 0.9 | 1.7 | 0.00 | 0.02 | 0.00 | 84 | 1007.1 |
| 20260506135117 | 59 | 90 | 1.7 | 4.3 | 0.00 | 0.02 | 0.00 | 84 | 1006.9 |
| 20260506134117 | 59 | 68 | 0.9 | 0.9 | 0.00 | 0.02 | 0.00 | 84 | 1006.9 |
| 20260506133117 | 59 | 0.0 | 0.0 | 0.00 | 0.02 | 0.00 | 85 | 1007.0 | |
| 20260506132117 | 59 | 23 | 1.7 | 2.6 | 0.00 | 0.02 | 0.00 | 85 | 1007.2 |
| 20260506131117 | 59 | 180 | 0.9 | 1.7 | 0.00 | 0.02 | 0.00 | 86 | 1007.4 |
| 20260506130117 | 58 | 158 | 1.7 | 3.5 | 0.00 | 0.02 | 0.00 | 87 | 1007.7 |
| 20260506125117 | 58 | 135 | 0.9 | 1.7 | 0.00 | 0.02 | 0.00 | 87 | 1007.6 |
| 20260506124117 | 57 | 0.0 | 0.0 | 0.00 | 0.02 | 0.00 | 88 | 1007.1 | |
| 20260506123117 | 57 | 0.0 | 0.0 | 0.00 | 0.02 | 0.00 | 89 | 1007.2 | |
| 20260506122117 | 56 | 0.0 | 0.0 | 0.00 | 0.02 | 0.00 | 89 | 1006.9 | |
| 20260506121137 | 56 | 0.0 | 0.0 | 0.00 | 0.02 | 0.00 | 89 | 1007.0 | |
| 20260506120117 | 56 | 0.0 | 0.0 | 0.00 | 0.02 | 0.00 | 90 | 1007.4 | |
| 20260506115117 | 55 | 0.0 | 0.0 | 0.00 | 0.02 | 0.00 | 90 | 1007.3 | |
| 20260506114117 | 55 | 0.0 | 0.0 | 0.00 | 0.02 | 0.00 | 90 | 1007.3 | |
| 20260506113117 | 54 | 0.0 | 0.0 | 0.00 | 0.02 | 0.00 | 91 | 1007.4 | |
| 20260506112117 | 54 | 0.0 | 0.0 | 0.00 | 0.02 | 0.00 | 92 | 1007.3 | |
| 20260506111117 | 53 | 0.0 | 0.0 | 0.00 | 0.02 | 0.00 | 92 | 1007.4 | |
| 20260506110137 | 53 | 0.0 | 0.0 | 0.00 | 0.02 | 0.00 | 92 | 1007.3 | |
| 20260506105137 | 52 | 0.0 | 0.0 | 0.00 | 0.02 | 0.00 | 92 | 1007.2 | |
| 20260506104117 | 52 | 0.0 | 0.0 | 0.00 | 0.02 | 0.00 | 92 | 1007.4 | |
| 20260506103117 | 52 | 0.0 | 0.0 | 0.00 | 0.02 | 0.00 | 92 | 1007.3 | |
| 20260506102117 | 52 | 0.0 | 0.0 | 0.00 | 0.02 | 0.00 | 92 | 1007.4 | |
| 20260506101117 | 52 | 113 | 0.9 | 1.7 | 0.00 | 0.02 | 0.00 | 91 | 1007.5 |
| 20260506100117 | 53 | 0.0 | 0.0 | 0.00 | 0.02 | 0.00 | 90 | 1007.7 | |
| 20260506095117 | 53 | 0.0 | 0.0 | 0.00 | 0.02 | 0.00 | 90 | 1007.4 | |
| 20260506094137 | 53 | 0.0 | 0.0 | 0.00 | 0.02 | 0.00 | 89 | 1007.3 | |
| 20260506093117 | 54 | 0.0 | 0.0 | 0.00 | 0.02 | 0.00 | 89 | 1007.7 | |
| 20260506092117 | 54 | 0.0 | 0.0 | 0.00 | 0.02 | 0.00 | 88 | 1007.6 | |
| 20260506091117 | 54 | 0.0 | 0.9 | 0.00 | 0.02 | 0.00 | 88 | 1007.8 | |
| 20260506090117 | 55 | 0.0 | 0.0 | 0.00 | 0.02 | 0.00 | 87 | 1007.7 | |
| 20260506085117 | 55 | 0.0 | 0.0 | 0.00 | 0.02 | 0.00 | 86 | 1007.9 | |
| 20260506084117 | 56 | 0.0 | 0.0 | 0.00 | 0.02 | 0.00 | 85 | 1008.0 | |
| 20260506083137 | 56 | 0.0 | 0.0 | 0.00 | 0.02 | 0.00 | 85 | 1008.0 | |
| 20260506082117 | 56 | 0.0 | 0.0 | 0.00 | 0.02 | 0.00 | 85 | 1008.2 | |
| 20260506081137 | 56 | 0.0 | 0.0 | 0.00 | 0.02 | 0.00 | 85 | 1008.2 | |
| 20260506080117 | 56 | 0.0 | 0.0 | 0.00 | 0.02 | 0.00 | 85 | 1008.1 | |
| 20260506073118 | 57 | 0.0 | 0.0 | 0.00 | 0.02 | 0.00 | 83 | 1008.5 | |
| 20260506072117 | 57 | 0.0 | 0.0 | 0.00 | 0.02 | 0.00 | 84 | 1008.3 | |
| 20260506071137 | 57 | 0.0 | 0.0 | 0.00 | 0.02 | 0.00 | 84 | 1008.3 | |
| 20260506070117 | 57 | 0.0 | 0.0 | 0.00 | 0.02 | 0.00 | 84 | 1008.3 | |
| 20260506062137 | 59 | 0.0 | 0.0 | 0.00 | 0.02 | 0.00 | 81 | 1008.0 | |
| 20260506061117 | 59 | 0.0 | 0.0 | 0.00 | 0.02 | 0.00 | 80 | 1008.2 | |
| 20260506060218 | 59 | 338 | 0.9 | 1.7 | 0.00 | 0.02 | 0.00 | 79 | 1008.1 |
| 20260506051118 | 60 | 270 | 0.9 | 2.6 | 0.00 | 0.02 | 0.00 | 79 | 1008.3 |
| 20260506050117 | 60 | 0.0 | 0.9 | 0.00 | 0.02 | 0.00 | 79 | 1008.3 | |
| 20260506045117 | 60 | 0.0 | 0.9 | 0.00 | 0.02 | 0.00 | 79 | 1008.3 | |
| 20260506044117 | 61 | 0.0 | 0.9 | 0.00 | 0.02 | 0.00 | 80 | 1008.4 | |
| 20260506043117 | 60 | 0.0 | 0.9 | 0.00 | 0.02 | 0.00 | 80 | 1008.4 | |
| 20260506042117 | 60 | 0.0 | 1.7 | 0.00 | 0.02 | 0.00 | 80 | 1008.0 | |
| 20260506041117 | 61 | 0.0 | 0.0 | 0.00 | 0.02 | 0.00 | 81 | 1008.0 | |
| 20260506040117 | 60 | 0.0 | 0.0 | 0.00 | 0.02 | 0.00 | 83 | 1007.9 | |
| 20260506035116 | 60 | 0.0 | 0.0 | 0.00 | 0.02 | 0.02 | 84 | 1008.2 | |
| 20260506034116 | 60 | 0.0 | 0.0 | 0.00 | 0.02 | 0.02 | 85 | 1008.1 | |
| 20260506033116 | 59 | 0.0 | 0.9 | 0.00 | 0.02 | 0.02 | 87 | 1008.0 | |
| 20260506032116 | 58 | 338 | 0.9 | 1.7 | 0.00 | 0.02 | 0.02 | 90 | 1008.0 |
| 20260506031116 | 58 | 0.0 | 0.0 | 0.00 | 0.02 | 0.02 | 92 | 1007.9 | |
| 20260506030116 | 58 | 0.0 | 0.0 | 0.00 | 0.02 | 0.02 | 92 | 1008.0 | |
| 20260506025116 | 58 | 0.0 | 0.0 | 0.00 | 0.02 | 0.02 | 92 | 1007.7 | |
| 20260506024116 | 57 | 0.0 | 0.0 | 0.00 | 0.02 | 0.02 | 92 | 1007.9 | |
| 20260506023116 | 57 | 0.0 | 0.0 | 0.00 | 0.02 | 0.02 | 92 | 1007.8 | |
| 20260506022116 | 57 | 0.0 | 0.0 | 0.00 | 0.02 | 0.02 | 91 | 1007.8 | |
| 20260506021136 | 57 | 0.0 | 0.0 | 0.00 | 0.02 | 0.02 | 90 | 1007.8 | |
| 20260506020116 | 58 | 0.0 | 0.0 | 0.00 | 0.02 | 0.02 | 91 | 1007.8 | |
| 20260506015116 | 58 | 0.0 | 0.0 | 0.00 | 0.02 | 0.02 | 90 | 1007.7 | |
| 20260506014116 | 59 | 0.0 | 0.0 | 0.00 | 0.02 | 0.02 | 90 | 1007.6 | |
| 20260506013116 | 58 | 0.0 | 0.0 | 0.00 | 0.02 | 0.02 | 89 | 1007.1 | |
| 20260506012116 | 59 | 0.0 | 0.0 | 0.00 | 0.02 | 0.02 | 90 | 1007.3 | |
| 20260506011116 | 58 | 0.0 | 0.0 | 0.00 | 0.02 | 0.02 | 89 | 1007.1 | |
| 20260506010116 | 58 | 0.0 | 0.0 | 0.00 | 0.02 | 0.02 | 88 | 1007.2 | |
| 20260506005136 | 58 | 0.0 | 0.0 | 0.00 | 0.02 | 0.02 | 87 | 1007.2 | |
| 20260506004116 | 58 | 0.0 | 0.9 | 0.00 | 0.02 | 0.02 | 88 | 1007.2 | |
| 20260506003117 | 58 | 0.0 | 0.0 | 0.00 | 0.02 | 0.02 | 89 | 1007.2 | |
| 20260506002116 | 59 | 90 | 0.9 | 1.7 | 0.00 | 0.02 | 0.02 | 86 | 1007.0 |
| 20260506001136 | 60 | 0.0 | 0.9 | 0.01 | 0.02 | 0.02 | 89 | 1007.0 | |
| 20260506000115 | 60 | 0.0 | 0.0 | 0.01 | 0.02 | 0.02 | 88 | 1007.0 | |
| 20260505235216 | 60 | 0.0 | 0.0 | 0.01 | 0.02 | 0.02 | 87 | 1006.9 | |
| 20260505234116 | 60 | 0.0 | 0.0 | 0.01 | 0.02 | 0.02 | 85 | 1006.7 | |
| 20260505233116 | 60 | 0.0 | 0.0 | 0.01 | 0.02 | 0.02 | 87 | 1006.6 | |
| 20260505232116 | 60 | 0.0 | 0.0 | 0.01 | 0.02 | 0.02 | 87 | 1006.5 |